Weather History for KDMA - September, 2013

Change the Weather History Date:

Monday, September 30, 2013

  Actual Average Record
Temperature  
Mean Temperature 74 °F -  
Max Temperature 88 °F 91 °F 103 °F (2010)
Min Temperature 59 °F 64 °F 44 °F (1965)
Cooling Degree Days 8    
Growing Degree Days 24 (Base 50)    
Moisture  
Dew Point 31 °F    
Average Humidity 23    
Maximum Humidity 39    
Minimum Humidity 9    
Precipitation  
Precipitation 0.00 in - - ()
Sea Level Pressure  
Sea Level Pressure 29.87 in    
Wind  
Wind Speed 6 mph (SE)    
Max Wind Speed 12 mph    
Max Gust Speed -    
Visibility 10 miles    
Events      
Averages and records for this station are not official NWS values.
T = Trace of Precipitation, MM = Missing Value Source: NWS Daily Summary

Daily Weather History Graph

Daily Weather History Graph

Search for Another Location

Airport or City:

Trip Planner

Search our weather history database for the weather conditions in past years. The results will help you decide how hot, cold, wet, or windy it might be!

Date:

Astronomy

Sep. 30, 2013 Rise Set
Actual Time 6:17 AM MST 6:09 PM MST
Civil Twilight 5:52 AM MST 6:33 PM MST
Nautical Twilight 5:24 AM MST 7:01 PM MST
Astronomical Twilight 4:55 AM MST 7:30 PM MST
Moon 2:10 AM MST (9/30) 3:30 PM MST (9/30)
Length of Visible Light 12h 41m
Length of Day
11h 52m
Waning Crescent, 18% of the Moon is Illuminated
Sep 30
Waning Crescent
Oct 4
New
Oct 11
First Quarter
Oct 18
Full
Oct 26
Last Quarter

Hourly Weather History & Observations

Time (MST) Temp. Dew Point Humidity Pressure Visibility Wind Dir Wind Speed Gust Speed Precip Events Conditions
12:58 AM 64.6 °F 32.9 °F 31% 29.92 in 10.0 mi SSE 5.8 mph - N/A   Clear
1:58 AM 64.2 °F 32.7 °F 31% 29.92 in 10.0 mi SE 5.8 mph - N/A   Clear
2:58 AM 61.7 °F 34.9 °F 37% 29.91 in 10.0 mi SE 6.9 mph - N/A   Clear
3:58 AM 61.0 °F 35.4 °F 38% 29.91 in 10.0 mi SE 6.9 mph - N/A   Clear
4:58 AM 59.7 °F 34.3 °F 39% 29.91 in 10.0 mi SE 4.6 mph - N/A   Clear
5:58 AM 60.1 °F 34.7 °F 39% 29.93 in 10.0 mi SSE 6.9 mph - N/A   Clear
6:58 AM 61.0 °F 35.1 °F 38% 29.93 in 10.0 mi SE 9.2 mph - N/A   Clear
7:58 AM 68.0 °F 35.8 °F 31% 29.94 in 10.0 mi SE 5.8 mph - N/A   Clear
8:58 AM 74.3 °F 35.8 °F 25% 29.94 in 10.0 mi SSE 3.5 mph - N/A   Clear
9:58 AM 78.8 °F 36.3 °F 22% 29.93 in 10.0 mi East 2.3 mph - N/A   Clear
10:58 AM 81.0 °F 35.8 °F 20% 29.92 in 10.0 mi Calm Calm - N/A   Clear
11:58 AM 84.9 °F 34.9 °F 17% 29.90 in 10.0 mi Variable 3.5 mph - N/A   Clear
12:58 PM 87.3 °F 27.1 °F 11% 29.86 in 10.0 mi NW 11.5 mph - N/A   Clear
1:58 PM 87.6 °F 20.5 °F 9% 29.83 in 10.0 mi NNE 5.8 mph - N/A   Clear
2:58 PM 88.7 °F 30.6 °F 12% 29.83 in 10.0 mi NNW 8.1 mph - N/A   Clear
3:58 PM 88.9 °F 28.6 °F 11% 29.81 in 10.0 mi NW 10.4 mph - N/A   Clear
4:58 PM 88.5 °F 23.4 °F 9% 29.80 in 10.0 mi North 9.2 mph - N/A   Clear
5:58 PM 86.2 °F 22.1 °F 10% 29.80 in 10.0 mi NNW 11.5 mph - N/A   Clear
6:58 PM 80.6 °F 27.7 °F 14% 29.82 in 10.0 mi NNW 6.9 mph - N/A   Clear
7:58 PM 78.4 °F 29.3 °F 17% 29.82 in 10.0 mi NW 6.9 mph - N/A   Clear
8:58 PM 75.6 °F 28.2 °F 17% 29.84 in 10.0 mi West 3.5 mph - N/A   Clear
9:58 PM 69.6 °F 28.4 °F 22% 29.84 in 10.0 mi South 5.8 mph - N/A   Clear
10:58 PM 66.9 °F 27.9 °F 23% 29.84 in 10.0 mi South 8.1 mph - N/A   Clear
11:58 PM 66.0 °F 27.5 °F 23% 29.84 in 10.0 mi South 5.8 mph - N/A   Clear